Vertical_Velocity
-3 10 -3 -9 -4 -4 3 5 2 -9 -10 17 -1 -1 -6 -6 1 -1 -4 -3 -0 4 2 -4 6 -3 -1 -6 6 13 -3 2 -3 -6 -9 4 12 16 4 5 -7 2 8 9
14 -2 -10 1 3 6 3 3 -9 -11 -4 21 -3 -10 -4 -1 -5 0 -1 -4 4 11 1 -3 12 -5 -7 -10 16 16 3 -1 -0 1 -4 13 7 0 4 6 4 6 6 -1
1 -23 3 8 -0 9 -3 4 -3 9 -6 -5 7 -12 -3 -11 3 2 -5 2 -3 0 -1 21 2 -4 -4 10 14 12 5 5 5 -3 -4 -3 4 4 3 3 6 -4 4 3
-5 -13 5 3 0 9 8 -2 4 2 10 0 13 -20 -6 -5 -5 0 1 -2 -4 2 -5 -1 -1 -1 1 -7 -2 14 3 -4 2 -3 -3 2 -2 -5 -5 2 0 2 -3 6
-57 1 2 6 -15 7 -14 6 5 2 3 13 -10 17 -19 1 0 -1 3 1 -0 -3 -7 0 -1 -4 -9 -3 -1 -1 4 4 -4 -1 -0 2 1 0 1 3 1 1 0 -0
-13 -9 14 -9 -3 3 -4 5 4 2 5 11 -11 13 -11 0 8 5 4 1 -1 -3 -0 -0 -5 -3 -2 -1 -1 -1 -2 3 1 1 0 1 -1 -3 -1 0 1 4 6 3
-2 -11 -8 14 12 3 10 11 1 8 10 -10 -3 12 -19 2 2 -2 -0 1 -1 -1 -2 -0 -1 -2 -5 -2 -1 1 -0 -1 -2 1 3 2 1 2 3 -2 -1 1 -4 1
0 3 7 -13 -5 -11 -6 -0 -4 -4 -0 -9 -0 -2 -3 1 1 2 1 3 2 -1 -2 -4 3 1 -2 -2 -2 -1 2 1 2 0 3 5 3 6 -0 2 5 9 3 -3
6 -6 5 4 -2 3 -23 11 -17 10 -0 7 -3 -15 -12 3 3 1 -0 -0 1 -1 1 -2 4 1 2 -1 -1 0 0 2 5 5 4 2 3 5 7 6 12 9 2 -1
-11 2 -5 2 16 9 11 -11 17 3 1 0 -4 -3 -7 2 4 2 1 -1 -3 1 -3 -6 -2 -3 0 -2 -7 -3 -4 -5 -4 -3 -2 -0 1 -1 3 2 -3 8 -4 3
2 9 0 8 2 -8 11 3 3 2 2 -0 0 -12 2 1 0 1 0 2 -2 -2 -1 -1 -7 -1 6 4 -3 2 -0 -3 -2 -6 -7 -7 -6 -4 -2 -4 -1 3 -1 0
-10 -1 1 -15 -7 -3 -2 -5 -0 5 -12 -3 2 -32 -1 -0 1 -0 -1 -3 -2 5 11 -5 -0 -5 1 5 2 -1 0 -1 -2 -3 -1 -0 2 0 -1 -0 -3 -1 -2 -0
3 -3 3 9 6 -4 3 -5 0 -1 5 -9 9 -35 -1 -1 -1 -0 -0 1 -2 8 8 3 1 -1 9 -2 1 -3 5 1 4 6 4 1 -1 -1 -3 -4 -1 -1 -2 1
-2 1 -4 -9 -15 -1 -0 -0 -1 7 7 -8 -12 -12 -11 -5 -1 -3 -3 -1 -4 -5 5 1 3 -25 31 32 -2 2 1 -8 -5 -7 1 3 0 -2 4 3 1 -1 -4 -2
3 1 6 -5 -2 4 1 -0 -2 5 -7 10 -20 2 -10 -2 0 -1 -5 1 -2 -2 -7 7 17 1 5 -4 -19 36 47 7 -6 -11 -7 -3 5 -1 0 -7 0 2 2 1
0 -2 3 -6 -2 3 1 -2 1 -0 -3 2 3 -8 -2 -9 -2 -0 5 3 -2 5 2 -1 -5 6 -17 1 0 -0 9 6 0 0 -4 -4 5 1 -1 4 -9 5 1 1
-2 -1 1 -12 1 3 6 -14 -2 -3 0 7 5 -12 -1 -6 -2 1 -1 3 -0 2 1 5 8 4 8 -5 7 -7 -3 1 2 42 18 -0 7 -7 -0 8 -5 -2 -2 3
-1 -0 -0 -4 5 6 -32 -2 1 4 -2 -1 -1 -1 3 4 -1 4 0 1 1 1 0 -2 -3 1 -0 5 -1 0 -5 6 -11 -7 20 11 8 -0 6 -1 -0 4 -2 1
-1 -1 1 1 -1 -9 -9 -2 0 4 1 0 1 -0 -0 -3 -2 6 -1 0 1 -3 -10 -6 -7 -4 -4 -9 -1 -11 -13 0 5 3 -9 6 -5 -6 12 -4 -9 1 -1 -4
4 1 1 2 2 -2 3 5 -0 1 2 0 -0 0 1 -2 -1 2 3 -4 -3 -1 -5 -10 -7 -2 -4 -5 -4 -6 -8 -4 -2 6 7 8 -2 14 5 -1 -4 -1 2 3
3 3 -2 -0 -0 -3 -4 1 -1 6 4 0 2 2 1 3 4 -2 -4 -6 -2 -7 -6 0 6 -8 -7 -3 7 -8 1 -4 -3 2 4 6 7 -2 13 16 -1 1 -1 2
-8 -3 -1 3 3 -4 -2 2 5 7 -3 2 -1 -3 -3 -4 -5 -6 -3 -2 -2 -6 -7 -1 -4 2 8 -8 8 -5 -6 -5 -4 2 11 8 6 6 1 11 4 3 2 3
1 -5 -5 -4 -3 -0 -4 -1 -3 2 4 -4 1 -5 7 5 -1 -0 -5 -3 -7 -7 -8 -4 1 -11 -13 16 8 -2 -6 -2 -3 -8 -1 2 7 6 4 -1 1 3 5 -1
3 0 1 2 -8 -1 -1 -4 -1 -1 -0 5 3 -1 -2 1 -4 -8 -5 -5 -3 -1 -4 2 5 -8 -15 -1 16 26 3 -9 -3 -6 -2 5 8 4 3 5 4 1 5 -3
-4 1 -1 -5 -5 -2 -8 -3 -2 -1 3 -7 -7 -1 -3 5 -2 5 -1 0 4 5 2 -1 -11 -1 -4 4 -17 6 18 -7 -8 3 2 -1 9 4 5 1 -3 0 19 2
-2 -7 2 -8 -8 3 -10 -5 3 5 -3 -6 1 1 2 6 1 5 4 5 8 11 6 8 -0 -1 -12 -4 2 -16 9 -4 -1 -1 -3 -7 4 1 3 6 5 4 1 3
Height
1484 1485 1479 1472 1469 1465 1463 1464 1462 1453 1451 1452 1451 1442 1440 1439 1438 1437 1437 1438 1437 1437 1440 1442 1447 1447 1450 1452 1456 1453 1455 1459 1465 1472 1480 1486 1488 1490 1490 1492 1496 1500 1504 1507
1475 1471 1466 1462 1459 1458 1457 1458 1456 1446 1450 1450 1442 1435 1436 1436 1433 1430 1430 1429 1430 1431 1433 1438 1440 1443 1447 1451 1454 1453 1454 1457 1462 1468 1475 1480 1482 1483 1487 1489 1493 1496 1500 1503
1466 1452 1457 1457 1457 1458 1455 1458 1456 1453 1452 1450 1449 1433 1431 1423 1418 1421 1422 1425 1427 1434 1435 1436 1440 1442 1447 1450 1452 1454 1452 1455 1459 1463 1470 1474 1476 1479 1482 1484 1487 1491 1494 1497
1452 1449 1449 1448 1449 1450 1453 1451 1449 1453 1456 1460 1451 1444 1435 1423 1418 1416 1420 1426 1431 1434 1437 1440 1440 1444 1447 1448 1450 1454 1453 1454 1456 1460 1465 1469 1472 1474 1476 1480 1482 1486 1490 1491
1431 1443 1446 1446 1444 1446 1443 1449 1448 1449 1454 1455 1455 1454 1428 1407 1408 1408 1417 1427 1432 1435 1438 1440 1441 1443 1444 1446 1448 1449 1452 1453 1455 1458 1461 1463 1467 1469 1472 1476 1479 1482 1485 1487
1431 1441 1438 1437 1439 1443 1446 1450 1446 1449 1456 1462 1452 1448 1431 1414 1411 1411 1421 1428 1433 1436 1438 1439 1440 1440 1440 1442 1444 1445 1448 1451 1453 1455 1456 1458 1460 1463 1467 1468 1471 1474 1478 1481
1444 1434 1434 1437 1443 1443 1446 1454 1467 1468 1465 1456 1431 1425 1420 1410 1412 1416 1423 1428 1432 1434 1436 1439 1441 1442 1439 1438 1439 1440 1442 1444 1447 1450 1453 1455 1458 1459 1460 1463 1465 1467 1472 1476
1436 1434 1422 1420 1427 1440 1442 1444 1452 1462 1449 1434 1411 1425 1413 1407 1410 1415 1422 1426 1429 1433 1434 1437 1440 1441 1439 1436 1437 1438 1439 1442 1443 1446 1450 1451 1453 1454 1457 1459 1459 1463 1467 1473
1417 1418 1394 1406 1418 1430 1434 1441 1431 1439 1435 1441 1428 1415 1403 1409 1416 1421 1425 1427 1430 1434 1436 1437 1439 1440 1439 1437 1436 1436 1438 1440 1442 1443 1446 1448 1450 1452 1455 1457 1460 1462 1465 1467
1408 1420 1402 1407 1412 1420 1423 1422 1441 1441 1459 1460 1429 1422 1417 1409 1414 1420 1424 1426 1428 1429 1432 1435 1439 1440 1440 1439 1438 1439 1437 1437 1439 1441 1444 1447 1448 1450 1453 1455 1458 1462 1466 1469
1409 1412 1411 1408 1411 1416 1424 1427 1427 1428 1432 1449 1443 1427 1403 1409 1414 1418 1419 1421 1423 1425 1425 1429 1433 1437 1439 1437 1436 1436 1434 1434 1434 1436 1440 1443 1445 1448 1452 1456 1460 1463 1465 1468
1401 1406 1414 1409 1407 1405 1407 1414 1420 1437 1437 1429 1431 1412 1407 1407 1411 1417 1420 1423 1423 1423 1423 1425 1429 1431 1436 1437 1435 1437 1435 1432 1432 1434 1437 1439 1442 1446 1450 1454 1458 1461 1464 1467
1400 1417 1419 1417 1413 1406 1414 1413 1411 1415 1425 1432 1447 1411 1408 1406 1410 1414 1417 1420 1423 1423 1422 1420 1423 1429 1433 1437 1438 1436 1437 1435 1436 1436 1437 1437 1441 1444 1447 1452 1456 1458 1462 1466
1406 1408 1412 1418 1412 1409 1422 1416 1410 1413 1428 1423 1422 1416 1400 1408 1411 1412 1415 1417 1421 1423 1422 1421 1421 1428 1434 1434 1433 1435 1436 1437 1437 1439 1441 1438 1438 1443 1445 1449 1453 1455 1458 1463
1412 1416 1412 1408 1408 1409 1409 1414 1408 1413 1412 1421 1407 1417 1402 1408 1411 1412 1412 1413 1416 1417 1420 1419 1420 1423 1429 1429 1433 1432 1433 1431 1432 1435 1438 1440 1438 1440 1443 1448 1454 1454 1456 1460
1413 1421 1418 1416 1410 1409 1414 1410 1403 1404 1402 1401 1404 1406 1405 1405 1405 1409 1407 1408 1409 1413 1415 1420 1422 1423 1424 1426 1426 1425 1427 1431 1434 1432 1433 1436 1438 1436 1439 1440 1448 1454 1453 1458
1422 1424 1427 1422 1417 1416 1422 1406 1410 1404 1398 1400 1407 1403 1404 1408 1410 1414 1413 1413 1414 1413 1416 1421 1422 1422 1420 1422 1420 1423 1424 1425 1428 1423 1429 1430 1431 1436 1437 1436 1437 1450 1451 1453
1426 1427 1429 1422 1418 1421 1393 1388 1393 1394 1396 1407 1409 1415 1416 1417 1420 1419 1417 1417 1419 1421 1420 1420 1420 1418 1419 1419 1418 1419 1419 1419 1422 1425 1426 1423 1430 1431 1434 1429 1437 1441 1445 1448
1420 1422 1423 1420 1412 1401 1396 1395 1400 1404 1407 1418 1420 1420 1420 1419 1416 1416 1417 1418 1421 1421 1422 1421 1420 1417 1413 1414 1416 1414 1413 1415 1416 1418 1425 1423 1422 1428 1425 1425 1431 1437 1438 1444
1416 1420 1422 1420 1417 1407 1396 1402 1407 1409 1412 1418 1420 1421 1420 1420 1417 1412 1414 1416 1418 1419 1418 1417 1416 1414 1412 1411 1409 1406 1406 1405 1405 1412 1415 1414 1416 1417 1418 1420 1424 1429 1433 1439
1409 1414 1417 1418 1416 1409 1398 1401 1405 1414 1416 1416 1418 1418 1417 1417 1415 1411 1414 1414 1414 1413 1412 1413 1411 1408 1408 1407 1405 1400 1397 1395 1397 1400 1404 1404 1405 1408 1410 1411 1416 1423 1429 1434
1394 1404 1409 1412 1409 1409 1398 1404 1408 1407 1409 1412 1415 1415 1415 1415 1411 1410 1410 1410 1408 1409 1409 1407 1405 1402 1400 1399 1396 1393 1391 1389 1387 1387 1390 1393 1397 1399 1401 1406 1408 1416 1422 1427
1399 1393 1392 1395 1398 1400 1402 1405 1405 1405 1405 1408 1411 1411 1410 1408 1407 1405 1404 1403 1402 1401 1399 1398 1397 1395 1393 1392 1388 1385 1384 1383 1380 1379 1381 1382 1386 1388 1391 1397 1403 1408 1414 1422
1381 1384 1390 1396 1394 1395 1398 1400 1402 1403 1403 1404 1406 1406 1405 1404 1402 1400 1397 1394 1391 1389 1388 1389 1388 1386 1385 1384 1381 1379 1375 1375 1375 1372 1374 1374 1376 1377 1383 1388 1395 1401 1404 1411
1382 1385 1390 1392 1393 1393 1395 1397 1399 1398 1399 1400 1402 1402 1400 1397 1394 1392 1389 1386 1383 1380 1378 1377 1378 1377 1375 1375 1374 1371 1368 1367 1368 1367 1364 1366 1367 1370 1374 1379 1383 1388 1395 1400
1382 1385 1389 1391 1393 1393 1393 1394 1395 1395 1397 1397 1396 1394 1392 1391 1389 1386 1382 1379 1377 1372 1370 1366 1364 1365 1365 1366 1364 1364 1363 1361 1362 1360 1357 1360 1361 1363 1366 1369 1374 1381 1391 1396